This is the latest recevied weather packets stored in our database for station/object WX7EM. If no packets are shown the sender has not sent any weather packets the latest 10 day(s).
| Time | Temp. | Humidity | Pressure | Rain* | Wind** | Luminosity | Snow |
|---|---|---|---|---|---|---|---|
| 1777642658 | 10° C | 91% | 1016.2 hPa | 0 mm | - | 32 W/m² | - |
| 1777642355 | 10° C | 91% | 1016.1 hPa | 0 mm | - | 26 W/m² | - |
| 1777642051 | 10° C | 92% | 1016 hPa | 0 mm | - | 19 W/m² | - |
| 1777641748 | 10° C | 93% | 1016.2 hPa | 0 mm | - | 14 W/m² | - |
| 1777641443 | 10° C | 93% | 1016 hPa | 0 mm | - | 11 W/m² | - |
| 1777641139 | 9.44° C | 94% | 1016 hPa | 0 mm | - | 7 W/m² | - |
| 1777640834 | 9.44° C | 93% | 1016 hPa | 0 mm | - | 4 W/m² | - |
| 1777640532 | 9.44° C | 93% | 1016.2 hPa | 0 mm | - | 3 W/m² | - |
| 1777640229 | 9.44° C | 94% | 1016.1 hPa | 0 mm | - | 2 W/m² | - |
| 1777639925 | 9.44° C | 93% | 1016 hPa | 0 mm | - | 1 W/m² | - |
| 1777639622 | 9.44° C | 93% | 1016 hPa | 0 mm | - | 0 W/m² | - |
| 1777639319 | 9.44° C | 93% | 1015.8 hPa | 0 mm | - | 0 W/m² | - |
| 1777639015 | 10° C | 92% | 1016.1 hPa | 0 mm | - | 0 W/m² | - |
| 1777638711 | 10° C | 92% | 1015.8 hPa | 0 mm | - | 0 W/m² | - |
| 1777638408 | 10° C | 92% | 1016.1 hPa | 0 mm | - | 0 W/m² | - |
| 1777638104 | 10° C | 92% | 1015.9 hPa | 0 mm | - | 0 W/m² | - |
| 1777637801 | 10° C | 92% | 1015.9 hPa | 0 mm | - | 0 W/m² | - |
| 1777637497 | 10° C | 92% | 1015.8 hPa | 0 mm | - | 0 W/m² | - |
| 1777637195 | 10° C | 92% | 1015.8 hPa | 0 mm | - | 0 W/m² | - |
| 1777636892 | 10° C | 92% | 1015.7 hPa | 0 mm | - | 0 W/m² | - |
| 1777636587 | 10° C | 91% | 1015.7 hPa | 0 mm | - | 0 W/m² | - |
| 1777636283 | 10° C | 92% | 1015.6 hPa | 0 mm | - | 0 W/m² | - |
| 1777635983 | 10° C | 92% | 1015.7 hPa | 0 mm | - | 0 W/m² | - |
| 1777635680 | 10° C | 91% | 1015.8 hPa | 0 mm | - | 0 W/m² | - |
| 1777635376 | 10° C | 91% | 1015.5 hPa | 0 mm | - | 0 W/m² | - |
* Rain latest hour (hover to see other rain measurements)
** Current wind speed in m/s (hover to see current wind gust speed)